#timestamp,LO_Frequency,Hit,StdDev 
1623700815.5,286047003.8,Y
1623700835.3,286047008.1,P
1623700855.2,286047009.9,N
1623700875.0,286047010.8,N
1623700875.9,286047010.8,N
1623700895.8,286047007.8,N
1623700915.6,286047008.7,N
1623700935.4,286047006.7,N
1623700955.3,286047007.0,N
1623700975.1,286047005.9,N
1623700995.8,286047003.4,N
1623701015.7,286047004.3,N
1623701035.5,286047003.9,N
1623701055.3,286047001.8,N
1623701075.2,286047001.4,N
1623701095.0,286047002.6,N
1623701095.9,286047002.6,N
1623701115.8,286047002.7,N
1623701135.6,286047002.8,N
1623701155.4,286047000.2,N
1623701175.3,286047000.2,N
1623701195.1,286047002.3,N
1623701215.8,286047001.8,N
1623701235.7,286046999.7,N
1623701255.5,286047001.1,N
1623701275.4,286047002.3,N
1623701295.2,286047001.1,N
1623701315.0,286047000.4,N
1623701315.9,286047000.4,N
1623701335.8,286047000.2,N
1623701355.6,286047000.8,N
1623701375.4,286047000.5,N
1623701395.3,286047001.2,N
1623701415.1,286047000.5,N
1623701435.9,286046999.0,N
1623701455.7,286046998.3,N
1623701475.5,286046998.6,N
1623701495.4,286047001.5,N
1623701515.2,286047001.5,N
1623701535.0,286047001.9,N
1623701535.9,286047001.9,N
1623701555.8,286047002.2,N
1623701575.6,286047001.7,N
1623701595.5,286047002.5,N
1623701615.3,286047001.5,N
1623701635.1,286047002.1,N
1623701655.9,286047002.8,N
1623701675.7,286047001.9,N
1623701695.6,286047004.0,Y
1623701715.4,286047001.7,P
1623701735.2,286047000.1,N
1623701755.1,286046998.1,N
1623701756.0,286046998.1,N
1623701775.8,286046998.1,N
1623701795.7,286046998.7,N
1623701815.5,286046998.3,N
1623701835.3,286047000.9,N
1623701855.2,286047000.1,N
1623701875.0,286046998.6,N
1623701875.9,286046998.6,N
1623701895.7,286046998.9,N
1623701915.6,286046998.7,N
1623701935.4,286046999.3,N
1623701955.3,286046999.4,N
1623701975.1,286046997.8,N
1623701976.0,286046997.8,N
1623701995.8,286046997.2,N
1623702015.7,286046997.6,N
1623702035.5,286046997.6,N
1623702055.3,286046998.0,N
1623702075.2,286046999.2,N
1623702095.0,286046998.3,N
1623702095.9,286046998.3,N
1623702115.8,286046997.7,N
1623702135.6,286046995.3,Y
1623702155.4,286046997.2,P
1623702175.3,286047000.7,N
1623702195.1,286047000.3,N
1623702215.8,286046998.2,N
1623702235.7,286046998.6,N
1623702255.5,286046998.6,N
1623702275.4,286047000.5,N
1623702295.2,286046998.7,N
1623702315.0,286046998.4,N
1623702316.0,286046998.4,N
1623702335.8,286046998.8,N
1623702355.6,286046998.8,N
1623702375.5,286046999.1,N
1623702395.3,286046996.5,Y
1623702415.1,286046998.2,P
1623702435.9,286046998.3,P
1623702455.7,286046998.3,P
1623702475.6,286046998.9,Y
1623702495.4,286047000.7,P
1623702515.2,286047001.0,N
1623702535.1,286047000.7,N
1623702536.0,286047000.7,N
1623702555.8,286047000.5,N
1623702575.7,286046998.1,N
1623702595.5,286046998.9,N
1623702615.3,286046996.6,Y
1623702635.2,286046998.8,P
1623702655.0,286046999.4,N
1623702655.9,286046999.4,N
1623702675.8,286046998.2,Y
1623702695.6,286046999.4,P
1623702715.4,286046998.8,P
1623702735.3,286046998.6,P
1623702755.1,286046998.5,Y
1623702775.8,286047000.3,P
1623702795.7,286047000.3,N
1623702815.5,286047000.6,N
1623702835.4,286047001.2,N
1623702855.2,286047000.2,N
1623702875.0,286046999.8,N
1623702875.9,286046999.8,N
1623702895.8,286046999.9,N
1623702915.6,286047000.7,N
1623702935.4,286047001.1,N
1623702955.3,286046996.6,Y
1623702975.1,286046994.9,P
1623702995.9,286046995.4,N
1623703015.7,286046997.7,N
1623703035.5,286046996.7,N
1623703055.4,286046999.6,N
1623703075.2,286046996.9,N
1623703095.0,286046999.2,N
1623703095.9,286046999.2,N
1623703115.8,286046999.0,N
1623703135.6,286046999.1,N
1623703155.5,286046999.4,N
1623703175.3,286046999.5,N
1623703195.1,286046998.1,N
1623703215.9,286046998.1,N
1623703235.7,286046998.4,N
1623703255.6,286046998.5,N
1623703275.4,286047000.5,N
1623703295.2,286047002.6,N
1623703315.1,286047000.8,N
1623703316.0,286047000.8,N
1623703335.8,286047000.0,N
1623703355.7,286047000.6,N
1623703375.5,286047000.7,N
1623703395.3,286047001.0,N
1623703415.2,286047000.8,N
1623703435.0,286046998.2,N
1623703435.9,286046998.2,N
1623703455.8,286047001.1,N
1623703475.6,286047000.0,N
1623703495.4,286047000.0,N
1623703515.3,286047000.7,N
1623703535.1,286047000.3,N
1623703555.9,286047002.1,N
1623703575.7,286047000.7,N
1623703595.5,286047002.4,N
1623703615.4,286047000.1,N
1623703635.2,286047001.2,N
1623703655.0,286047002.1,N
1623703655.9,286047002.1,N
1623703675.8,286047001.1,N
1623703695.6,286047000.8,N
1623703715.5,286047000.2,N
1623703735.3,286047002.4,N
1623703755.1,286047005.9,Y
1623703775.9,286047004.1,P
1623703795.7,286047001.9,N
1623703815.6,286047001.8,N
1623703835.4,286047002.0,N
1623703855.2,286047002.6,N
1623703875.1,286047002.6,N
1623703876.0,286047002.6,N
1623703895.8,286047000.3,N
1623703915.6,286047002.0,N
1623703935.5,286047002.1,N
1623703955.3,286047001.5,N
1623703975.2,286047000.9,N
1623703995.9,286047002.4,N
1623704015.7,286047004.3,Y
1623704035.6,286047002.6,P
1623704055.4,286047002.4,P
1623704075.3,286047002.8,P
1623704095.1,286047002.6,Y
1623704096.0,286047002.6,P
1623704115.8,286046998.2,P
1623704135.7,286046998.7,N
1623704155.5,286046999.4,N
1623704175.3,286046998.6,N
1623704195.2,286047000.7,N
1623704215.0,286046997.4,N
1623704215.9,286046997.4,N
1623704235.8,286046999.2,N
1623704255.6,286046998.8,N
1623704275.4,286046998.4,N
1623704295.3,286046999.4,N
1623704315.1,286047001.0,N
1623704335.8,286046998.4,N
1623704355.7,286047000.8,N
1623704375.5,286047000.8,N
1623704395.4,286047000.4,N
